Pineville, WV

3:47 AM EDT on June 25, 2017 (GMT -0400)
Pineville

Weather History for KI16 - January, 2013

Change the Weather History Date:

Friday, January 4, 2013

  Actual Average (KBKW) Record (KBKW)
Temperature  
Mean Temperature 27 °F -  
Max Temperature 34 °F 40 °F 69 °F (1950)
Min Temperature 20 °F 23 °F -13 °F (1918)
Degree Days  
Heating Degree Days 38    
Moisture  
Dew Point 25 °F    
Average Humidity 88    
Maximum Humidity 99    
Minimum Humidity 73    
Precipitation  
Precipitation 0.00 in - - ()
Sea Level Pressure  
Sea Level Pressure 30.35 in    
Wind  
Wind Speed - (North)    
Max Wind Speed -    
Max Gust Speed -    
Visibility 10 miles    
Events      
Averages and records for this station are not official NWS values.
T = Trace of Precipitation, MM = Missing Value Source: NWS Daily Summary

Daily Weather History Graph

Daily Weather History Graph

Search for Another Location

Airport or City:

Trip Planner

Search our weather history database for the weather conditions in past years. The results will help you decide how hot, cold, wet, or windy it might be!

Date:

Astronomy

Jan. 04, 2013 Rise Set
Actual Time 7:41 AM EST 5:21 PM EST
Civil Twilight 7:12 AM EST 5:50 PM EST
Nautical Twilight 6:39 AM EST 6:23 PM EST
Astronomical Twilight 6:08 AM EST 6:54 PM EST
Moon No Moon Rise 11:32 AM EST (1/4)
Length of Visible Light 10h 38m
Length of Day
9h 39m
Waning Gibbous, 55% of the Moon is Illuminated
Jan 4
Waning Gibbous
Jan 4
Last Quarter
Jan 11
New
Jan 18
First Quarter
Jan 26
Full

Hourly Weather History & Observations

Time (EST) Temp. Dew Point Humidity Pressure Visibility Wind Dir Wind Speed Gust Speed Precip Events Conditions
12:15 AM 22.3 °F 22.1 °F 99% 30.32 in 10.0 mi North - - N/A   Clear
12:35 AM 22.3 °F 22.1 °F 99% 30.32 in 10.0 mi North - - N/A   Clear
12:55 AM 22.5 °F 22.1 °F 99% 30.32 in 10.0 mi North - - N/A   Clear
1:15 AM 22.5 °F 22.1 °F 99% 30.32 in 10.0 mi North - - N/A   Clear
1:35 AM 21.7 °F 21.4 °F 99% 30.32 in 10.0 mi North - - N/A   Clear
1:55 AM 21.7 °F 21.2 °F 98% 30.32 in 10.0 mi North - - N/A   Clear
2:15 AM 21.6 °F 21.0 °F 98% 30.33 in 10.0 mi North - - N/A   Clear
2:35 AM 21.2 °F 20.8 °F 99% 30.34 in 10.0 mi North - - N/A   Clear
2:55 AM 20.8 °F 20.3 °F 98% 30.34 in 10.0 mi North - - N/A   Clear
3:15 AM 21.4 °F 21.0 °F 99% 30.34 in 10.0 mi North - - N/A   Mostly Cloudy
3:55 AM 23.7 °F 23.4 °F 99% 30.34 in 10.0 mi North - - N/A   Overcast
6:35 AM 25.7 °F 25.3 °F 99% 30.32 in 10.0 mi North - - N/A   Overcast
6:55 AM 26.2 °F 25.7 °F 98% 30.34 in 10.0 mi North - - N/A   Overcast
7:15 AM 27.0 °F 26.2 °F 97% 30.34 in 10.0 mi North - - N/A   Overcast
7:35 AM 27.9 °F 26.4 °F 94% 30.35 in 10.0 mi North - - N/A   Overcast
7:55 AM 28.2 °F 25.7 °F 90% 30.35 in 10.0 mi North - - N/A   Overcast
8:15 AM 28.4 °F 25.7 °F 90% 30.35 in 10.0 mi North - - N/A   Overcast
8:35 AM 28.4 °F 25.7 °F 90% 30.36 in 10.0 mi North - - N/A   Overcast
8:55 AM 28.8 °F 25.3 °F 87% 30.37 in 10.0 mi North - - N/A   Overcast
9:15 AM 29.1 °F 25.3 °F 86% 30.38 in 10.0 mi North - - N/A   Overcast
9:35 AM 29.3 °F 25.0 °F 84% 30.38 in 10.0 mi North - - N/A   Overcast
9:55 AM 29.7 °F 25.2 °F 83% 30.39 in 10.0 mi North - - N/A   Overcast
10:15 AM 29.7 °F 24.8 °F 82% 30.39 in 10.0 mi North - - N/A   Overcast
10:35 AM 29.7 °F 24.6 °F 81% 30.39 in 10.0 mi North - - N/A   Overcast
10:55 AM 29.8 °F 24.4 °F 80% 30.39 in 10.0 mi North - - N/A   Overcast
11:15 AM 30.0 °F 24.6 °F 80% 30.38 in 10.0 mi North - - N/A   Overcast
11:35 AM 30.2 °F 24.6 °F 80% 30.37 in 10.0 mi North - - N/A   Overcast
11:55 AM 30.2 °F 24.8 °F 80% 30.36 in 10.0 mi North - - N/A   Overcast
12:15 PM 30.6 °F 24.6 °F 79% 30.36 in 10.0 mi North - - N/A   Overcast
12:35 PM 30.9 °F 24.4 °F 77% 30.35 in 10.0 mi North - - N/A   Overcast
12:55 PM 31.6 °F 24.6 °F 75% 30.34 in 10.0 mi North - - N/A   Overcast
1:15 PM 32.0 °F 25.0 °F 75% 30.33 in 10.0 mi North - - N/A   Overcast
1:35 PM 32.0 °F 24.8 °F 75% 30.32 in 10.0 mi North - - N/A   Overcast
1:55 PM 32.5 °F 25.3 °F 75% 30.32 in 10.0 mi North - - N/A   Overcast
2:15 PM 32.2 °F 25.2 °F 75% 30.32 in 10.0 mi North - - N/A   Overcast
2:35 PM 32.4 °F 25.5 °F 76% 30.32 in 10.0 mi North - - N/A   Overcast
2:55 PM 32.9 °F 25.7 °F 75% 30.31 in 10.0 mi North - - N/A   Mostly Cloudy
3:15 PM 33.3 °F 25.7 °F 74% 30.32 in 10.0 mi North - - N/A   Clear
3:35 PM 33.4 °F 25.7 °F 73% 30.32 in 10.0 mi North - - N/A   Mostly Cloudy
3:55 PM 33.8 °F 26.4 °F 74% 30.32 in 10.0 mi North - - N/A   Overcast
4:15 PM 34.0 °F 26.4 °F 74% 30.32 in 10.0 mi North - - N/A   Overcast
4:35 PM 33.8 °F 26.4 °F 74% 30.32 in 10.0 mi North - - N/A   Overcast
4:55 PM 33.3 °F 26.4 °F 76% 30.33 in 10.0 mi North - - N/A   Overcast
5:15 PM 33.1 °F 27.9 °F 81% 30.33 in 10.0 mi North - - N/A   Overcast
5:35 PM 33.1 °F 27.0 °F 78% 30.33 in 10.0 mi North - - N/A   Overcast
5:55 PM 32.9 °F 27.5 °F 81% 30.34 in 10.0 mi North - - N/A   Overcast
6:15 PM 33.1 °F 27.0 °F 78% 30.35 in 10.0 mi North - - N/A   Overcast
6:35 PM 32.4 °F 27.3 °F 82% 30.36 in 10.0 mi North - - N/A   Overcast
6:55 PM 32.0 °F 27.5 °F 83% 30.36 in 10.0 mi North - - N/A   Overcast
7:15 PM 30.4 °F 27.5 °F 89% 30.37 in 10.0 mi North - - N/A   Scattered Clouds
7:35 PM 29.1 °F 27.1 °F 92% 30.38 in 10.0 mi North - - N/A   Clear
7:55 PM 28.2 °F 26.6 °F 94% 30.38 in 10.0 mi North - - N/A   Clear
8:15 PM 26.8 °F 25.5 °F 95% 30.38 in 10.0 mi North - - N/A   Clear
8:35 PM 26.4 °F 25.3 °F 96% 30.37 in 10.0 mi North - - N/A   Clear
8:55 PM 25.7 °F 25.2 °F 98% 30.36 in 10.0 mi North - - N/A   Clear
9:15 PM 25.2 °F 24.4 °F 97% 30.36 in 10.0 mi North - - N/A   Clear
9:35 PM 24.4 °F 23.7 °F 97% 30.36 in 10.0 mi North - - N/A   Clear
9:55 PM 23.9 °F 23.5 °F 99% 30.37 in 10.0 mi North - - N/A   Clear
10:15 PM 23.7 °F 23.0 °F 97% 30.38 in 10.0 mi North - - N/A   Clear
10:35 PM 23.2 °F 22.8 °F 99% 30.37 in 10.0 mi North - - N/A   Clear
10:55 PM 23.4 °F 22.8 °F 98% 30.38 in 10.0 mi North - - N/A   Clear
11:15 PM 22.6 °F 21.9 °F 97% 30.38 in 10.0 mi North - - N/A   Clear
11:35 PM 22.8 °F 22.3 °F 98% 30.38 in 10.0 mi North - - N/A   Clear
11:55 PM 22.1 °F 21.4 °F 97% 30.38 in 10.0 mi North - - N/A   Clear